| time (UTC) | temp F | wind direction | speed knots | gust knots | rain 1hr in | rain 24hr in | rain mn in | humidity % | barometer mb |
| 20260509094959 | 52 | 135 | 4.3 | 7.0 | 0.00 | 0.00 | 0.00 | 85 | 1029.0 |
| 20260509094505 | 52 | 133 | 2.6 | 4.3 | 0.00 | 0.00 | 0.00 | 85 | 1029.0 |
| 20260509094003 | 53 | 140 | 2.6 | 5.2 | 0.00 | 0.00 | 0.00 | 85 | 1028.9 |
| 20260509093503 | 53 | 162 | 2.6 | 5.2 | 0.00 | 0.00 | 0.00 | 85 | 1029.0 |
| 20260509093004 | 53 | 159 | 2.6 | 6.1 | 0.00 | 0.00 | 0.00 | 85 | 1028.9 |
| 20260509092502 | 53 | 189 | 2.6 | 6.1 | 0.00 | 0.00 | 0.00 | 84 | 1029.0 |
| 20260509092007 | 53 | 162 | 2.6 | 5.2 | 0.00 | 0.00 | 0.00 | 84 | 1029.1 |
| 20260509091507 | 53 | 161 | 3.5 | 5.2 | 0.00 | 0.00 | 0.00 | 84 | 1029.1 |
| 20260509091003 | 53 | 162 | 2.6 | 5.2 | 0.00 | 0.00 | 0.00 | 84 | 1029.1 |
| 20260509090504 | 53 | 162 | 2.6 | 7.0 | 0.00 | 0.00 | 0.00 | 84 | 1029.0 |
| 20260509090004 | 53 | 170 | 3.5 | 7.0 | 0.00 | 0.00 | 0.00 | 84 | 1028.9 |
| 20260509085004 | 53 | 180 | 3.5 | 8.7 | 0.00 | 0.00 | 0.00 | 84 | 1028.7 |
| 20260509084504 | 53 | 175 | 4.3 | 8.7 | 0.00 | 0.00 | 0.00 | 84 | 1028.7 |
| 20260509084002 | 54 | 175 | 3.5 | 8.7 | 0.00 | 0.00 | 0.00 | 84 | 1028.7 |
| 20260509083458 | 54 | 166 | 3.5 | 8.7 | 0.00 | 0.00 | 0.00 | 84 | 1028.7 |
| 20260509083010 | 53 | 172 | 3.5 | 7.8 | 0.00 | 0.00 | 0.00 | 84 | 1028.7 |
| 20260509082504 | 53 | 166 | 4.3 | 7.8 | 0.00 | 0.00 | 0.00 | 83 | 1028.6 |
| 20260509082003 | 53 | 175 | 5.2 | 8.7 | 0.00 | 0.00 | 0.00 | 83 | 1028.6 |
| 20260509081507 | 53 | 172 | 5.2 | 8.7 | 0.00 | 0.00 | 0.00 | 83 | 1028.5 |
| 20260509081005 | 53 | 185 | 4.3 | 7.0 | 0.00 | 0.00 | 0.00 | 83 | 1028.5 |
| 20260509080503 | 53 | 170 | 2.6 | 7.0 | 0.00 | 0.00 | 0.00 | 83 | 1028.4 |
| 20260509080006 | 53 | 165 | 2.6 | 7.0 | 0.00 | 0.00 | 0.00 | 83 | 1028.3 |
| 20260509075504 | 53 | 160 | 2.6 | 7.0 | 0.00 | 0.00 | 0.00 | 83 | 1028.2 |
| 20260509075006 | 53 | 180 | 3.5 | 8.7 | 0.00 | 0.00 | 0.00 | 83 | 1028.2 |
| 20260509074505 | 53 | 189 | 4.3 | 8.7 | 0.00 | 0.00 | 0.00 | 83 | 1028.1 |
| 20260509074003 | 53 | 195 | 4.3 | 7.0 | 0.00 | 0.00 | 0.00 | 83 | 1028.0 |
| 20260509073005 | 54 | 164 | 4.3 | 7.8 | 0.00 | 0.00 | 0.00 | 83 | 1028.1 |
| 20260509072504 | 54 | 185 | 4.3 | 7.8 | 0.00 | 0.00 | 0.00 | 83 | 1028.1 |
| 20260509072006 | 54 | 152 | 4.3 | 7.8 | 0.00 | 0.00 | 0.00 | 83 | 1028.0 |
| 20260509071505 | 54 | 166 | 4.3 | 7.8 | 0.00 | 0.00 | 0.00 | 83 | 1028.0 |
| 20260509071003 | 54 | 156 | 3.5 | 7.0 | 0.00 | 0.00 | 0.00 | 83 | 1027.9 |
| 20260509070503 | 54 | 175 | 3.5 | 7.0 | 0.00 | 0.00 | 0.00 | 83 | 1027.8 |
| 20260509070005 | 54 | 185 | 3.5 | 8.7 | 0.00 | 0.00 | 0.00 | 83 | 1027.8 |
| 20260509065502 | 54 | 175 | 4.3 | 9.6 | 0.00 | 0.00 | 0.00 | 83 | 1027.7 |
| 20260509065003 | 54 | 175 | 5.2 | 9.6 | 0.00 | 0.00 | 0.00 | 83 | 1027.7 |
| 20260509064503 | 54 | 192 | 4.3 | 8.7 | 0.00 | 0.00 | 0.00 | 82 | 1027.7 |
| 20260509064009 | 54 | 191 | 5.2 | 8.7 | 0.00 | 0.00 | 0.00 | 82 | 1027.7 |
| 20260509063507 | 54 | 193 | 4.3 | 10.4 | 0.00 | 0.00 | 0.00 | 82 | 1027.7 |
| 20260509062503 | 54 | 185 | 6.1 | 9.6 | 0.00 | 0.00 | 0.00 | 82 | 1027.6 |
| 20260509062004 | 55 | 204 | 4.3 | 9.6 | 0.00 | 0.00 | 0.00 | 82 | 1027.6 |
| 20260509061513 | 55 | 151 | 4.3 | 9.6 | 0.00 | 0.00 | 0.00 | 82 | 1027.7 |
| 20260509061004 | 55 | 164 | 6.1 | 9.6 | 0.00 | 0.00 | 0.00 | 82 | 1027.6 |
| 20260509060509 | 55 | 180 | 6.1 | 9.6 | 0.00 | 0.00 | 0.00 | 82 | 1027.6 |
| 20260509055005 | 55 | 168 | 5.2 | 10.4 | 0.00 | 0.00 | 0.00 | 83 | 1027.6 |
| 20260509054003 | 55 | 197 | 5.2 | 9.6 | 0.00 | 0.00 | 0.00 | 83 | 1027.3 |
| 20260509052510 | 55 | 195 | 7.8 | 12.2 | 0.00 | 0.00 | 0.00 | 82 | 1027.4 |
| 20260509051505 | 55 | 200 | 8.7 | 11.3 | 0.00 | 0.00 | 0.00 | 85 | 1027.3 |
| 20260509050506 | 54 | 172 | 7.0 | 11.3 | 0.00 | 0.00 | 0.00 | 85 | 1027.4 |
| 20260509045505 | 54 | 185 | 6.1 | 12.2 | 0.00 | 0.00 | 0.00 | 86 | 1027.6 |
| 20260509045005 | 54 | 206 | 7.8 | 13.0 | 0.00 | 0.00 | 0.00 | 86 | 1027.6 |
| 20260509044004 | 54 | 170 | 7.8 | 10.4 | 0.00 | 0.00 | 0.00 | 87 | 1027.5 |
| 20260509042007 | 54 | 185 | 7.0 | 11.3 | 0.00 | 0.00 | 0.00 | 90 | 1027.7 |
| 20260509041508 | 54 | 185 | 7.0 | 10.4 | 0.00 | 0.00 | 0.00 | 90 | 1027.6 |
| 20260509041004 | 54 | 194 | 6.1 | 9.6 | 0.00 | 0.00 | 0.00 | 90 | 1027.5 |
| 20260509040012 | 53 | 180 | 6.1 | 9.6 | 0.00 | 0.00 | 0.00 | 90 | 1027.6 |
| 20260509035508 | 53 | 155 | 6.1 | 9.6 | 0.00 | 0.00 | 0.00 | 90 | 1027.7 |
| 20260509035008 | 53 | 140 | 5.2 | 9.6 | 0.00 | 0.00 | 0.00 | 90 | 1027.6 |
| 20260509034506 | 53 | 190 | 6.1 | 9.6 | 0.00 | 0.00 | 0.00 | 90 | 1027.6 |
| 20260509034009 | 53 | 169 | 5.2 | 10.4 | 0.00 | 0.00 | 0.00 | 90 | 1027.7 |
| 20260509033509 | 53 | 175 | 7.0 | 9.6 | 0.00 | 0.00 | 0.00 | 90 | 1027.7 |
| 20260509032008 | 53 | 156 | 4.3 | 9.6 | 0.00 | 0.00 | 0.00 | 90 | 1027.8 |
| 20260509031510 | 53 | 180 | 6.1 | 9.6 | 0.00 | 0.00 | 0.00 | 90 | 1027.9 |
| 20260509031004 | 53 | 170 | 5.2 | 9.6 | 0.00 | 0.00 | 0.00 | 90 | 1028.0 |
| 20260509030505 | 53 | 185 | 6.1 | 10.4 | 0.00 | 0.00 | 0.00 | 90 | 1028.0 |
| 20260509030014 | 52 | 193 | 6.1 | 12.2 | 0.00 | 0.00 | 0.00 | 90 | 1028.0 |
| 20260509025510 | 52 | 170 | 7.8 | 12.2 | 0.00 | 0.00 | 0.00 | 90 | 1028.0 |
| 20260509025004 | 53 | 189 | 7.0 | 10.4 | 0.00 | 0.00 | 0.00 | 90 | 1028.1 |
| 20260509024009 | 53 | 191 | 5.2 | 11.3 | 0.00 | 0.00 | 0.00 | 90 | 1028.1 |
| 20260509023508 | 52 | 195 | 7.0 | 11.3 | 0.00 | 0.00 | 0.00 | 91 | 1028.2 |
| 20260509022004 | 52 | 198 | 7.0 | 10.4 | 0.00 | 0.00 | 0.00 | 91 | 1028.4 |
| 20260509021517 | 53 | 180 | 6.1 | 10.4 | 0.00 | 0.00 | 0.00 | 90 | 1028.4 |
| 20260509021004 | 53 | 189 | 6.1 | 10.4 | 0.00 | 0.01 | 0.00 | 90 | 1028.4 |
| 20260509020503 | 52 | 185 | 6.1 | 10.4 | 0.00 | 0.01 | 0.00 | 91 | 1028.4 |
| 20260509020012 | 52 | 205 | 7.0 | 9.6 | 0.00 | 0.01 | 0.00 | 91 | 1028.5 |
| 20260509015504 | 52 | 180 | 5.2 | 10.4 | 0.00 | 0.01 | 0.00 | 91 | 1028.6 |
| 20260509015004 | 52 | 175 | 7.8 | 11.3 | 0.00 | 0.01 | 0.00 | 90 | 1028.6 |
| 20260509014510 | 52 | 193 | 7.8 | 11.3 | 0.00 | 0.01 | 0.00 | 90 | 1028.6 |
| 20260509014004 | 52 | 185 | 7.0 | 10.4 | 0.00 | 0.01 | 0.00 | 91 | 1028.6 |
| 20260509013508 | 52 | 191 | 6.1 | 10.4 | 0.00 | 0.01 | 0.00 | 91 | 1028.6 |
| 20260509013012 | 52 | 163 | 5.2 | 10.4 | 0.00 | 0.01 | 0.00 | 91 | 1028.6 |
| 20260509012504 | 52 | 185 | 7.0 | 10.4 | 0.00 | 0.01 | 0.00 | 90 | 1028.5 |
| 20260509011505 | 52 | 189 | 6.1 | 9.6 | 0.00 | 0.01 | 0.00 | 91 | 1028.5 |
| 20260509011005 | 52 | 170 | 5.2 | 10.4 | 0.00 | 0.01 | 0.00 | 90 | 1028.4 |
| 20260509010504 | 52 | 198 | 6.1 | 10.4 | 0.00 | 0.01 | 0.00 | 91 | 1028.5 |
| 20260509010012 | 52 | 166 | 6.1 | 13.0 | 0.00 | 0.01 | 0.00 | 91 | 1028.4 |
| 20260509005503 | 51 | 195 | 8.7 | 13.0 | 0.00 | 0.01 | 0.00 | 91 | 1028.5 |
| 20260509005006 | 52 | 175 | 8.7 | 13.0 | 0.00 | 0.01 | 0.00 | 91 | 1028.3 |
| 20260509004510 | 51 | 202 | 6.1 | 13.0 | 0.00 | 0.01 | 0.00 | 91 | 1028.3 |
| 20260509003504 | 51 | 204 | 7.8 | 13.0 | 0.00 | 0.01 | 0.00 | 91 | 1028.3 |
| 20260509003021 | 51 | 185 | 8.7 | 13.0 | 0.00 | 0.01 | 0.00 | 90 | 1028.4 |
| 20260509002503 | 51 | 195 | 7.8 | 13.9 | 0.00 | 0.01 | 0.00 | 91 | 1028.4 |
| 20260509002003 | 51 | 189 | 8.7 | 13.9 | 0.00 | 0.01 | 0.00 | 90 | 1028.4 |
| 20260509001518 | 51 | 201 | 8.7 | 13.0 | 0.00 | 0.01 | 0.00 | 91 | 1028.4 |
| 20260509001005 | 51 | 197 | 8.7 | 12.2 | 0.00 | 0.01 | 0.00 | 91 | 1028.4 |
| 20260509000512 | 51 | 185 | 7.8 | 12.2 | 0.00 | 0.01 | 0.00 | 91 | 1028.3 |
| 20260509000004 | 51 | 189 | 7.0 | 13.0 | 0.00 | 0.01 | 0.00 | 91 | 1028.2 |
| 20260508235504 | 51 | 199 | 9.6 | 13.0 | 0.00 | 0.01 | 0.00 | 90 | 1028.2 |
| 20260508235008 | 51 | 185 | 7.8 | 13.9 | 0.00 | 0.01 | 0.00 | 91 | 1028.2 |
| 20260508234508 | 51 | 180 | 9.6 | 13.9 | 0.00 | 0.01 | 0.00 | 90 | 1028.0 |
| 20260508234003 | 50 | 199 | 10.4 | 13.9 | 0.00 | 0.01 | 0.00 | 91 | 1028.0 |
| 20260508233507 | 51 | 175 | 9.6 | 13.9 | 0.00 | 0.01 | 0.00 | 90 | 1027.9 |
| 20260508233007 | 51 | 205 | 7.8 | 13.9 | 0.00 | 0.01 | 0.00 | 90 | 1028.0 |
| 20260508232508 | 50 | 243 | 9.6 | 13.9 | 0.00 | 0.01 | 0.00 | 91 | 1028.0 |
| 20260508232008 | 51 | 213 | 7.0 | 10.4 | 0.00 | 0.01 | 0.00 | 91 | 1028.0 |
| 20260508231516 | 51 | 208 | 6.1 | 12.2 | 0.00 | 0.01 | 0.00 | 91 | 1027.9 |
| 20260508231007 | 50 | 185 | 7.0 | 12.2 | 0.00 | 0.01 | 0.00 | 90 | 1027.9 |
| 20260508230504 | 50 | 196 | 8.7 | 12.2 | 0.00 | 0.01 | 0.00 | 90 | 1027.9 |
| 20260508225507 | 50 | 185 | 7.0 | 12.2 | 0.00 | 0.01 | 0.00 | 90 | 1027.9 |
| 20260508224520 | 50 | 191 | 8.7 | 13.9 | 0.00 | 0.01 | 0.00 | 91 | 1027.8 |
| 20260508223506 | 50 | 214 | 7.0 | 12.2 | 0.00 | 0.01 | 0.00 | 90 | 1027.8 |
| 20260508223023 | 50 | 210 | 5.2 | 13.0 | 0.00 | 0.01 | 0.00 | 90 | 1027.8 |
| 20260508222504 | 50 | 189 | 7.8 | 13.0 | 0.00 | 0.01 | 0.00 | 90 | 1027.7 |
| 20260508222012 | 50 | 215 | 8.7 | 12.2 | 0.00 | 0.01 | 0.00 | 90 | 1027.7 |
| 20260508221525 | 50 | 191 | 5.2 | 9.6 | 0.00 | 0.01 | 0.00 | 90 | 1027.6 |
| 20260508221004 | 50 | 195 | 6.1 | 10.4 | 0.00 | 0.01 | 0.00 | 90 | 1027.6 |
| 20260508220508 | 50 | 214 | 7.0 | 12.2 | 0.00 | 0.01 | 0.00 | 90 | 1027.5 |
| 20260508220023 | 50 | 214 | 7.8 | 12.2 | 0.00 | 0.01 | 0.00 | 90 | 1027.5 |
| 20260508215509 | 50 | 205 | 6.1 | 9.6 | 0.00 | 0.01 | 0.00 | 90 | 1027.6 |
| 20260508215010 | 50 | 185 | 7.0 | 11.3 | 0.00 | 0.01 | 0.00 | 90 | 1027.5 |
| 20260508214010 | 50 | 200 | 7.0 | 11.3 | 0.00 | 0.01 | 0.00 | 90 | 1027.4 |
| 20260508213507 | 50 | 185 | 5.2 | 10.4 | 0.00 | 0.01 | 0.00 | 90 | 1027.4 |
| 20260508213031 | 50 | 189 | 6.1 | 10.4 | 0.00 | 0.01 | 0.00 | 90 | 1027.4 |
| 20260508212508 | 50 | 175 | 6.1 | 10.4 | 0.00 | 0.01 | 0.00 | 90 | 1027.4 |
| 20260508212003 | 50 | 191 | 7.8 | 10.4 | 0.00 | 0.01 | 0.00 | 90 | 1027.3 |
| 20260508211510 | 50 | 200 | 4.3 | 10.4 | 0.00 | 0.01 | 0.00 | 90 | 1027.4 |
| 20260508211009 | 50 | 202 | 7.0 | 9.6 | 0.00 | 0.01 | 0.00 | 90 | 1027.3 |
| 20260508210504 | 49 | 190 | 6.1 | 9.6 | 0.00 | 0.01 | 0.00 | 90 | 1027.3 |
| 20260508210015 | 50 | 197 | 3.5 | 9.6 | 0.00 | 0.01 | 0.00 | 90 | 1027.2 |
| 20260508205507 | 49 | 199 | 3.5 | 9.6 | 0.00 | 0.01 | 0.00 | 90 | 1027.2 |
| 20260508205009 | 49 | 206 | 4.3 | 9.6 | 0.00 | 0.01 | 0.00 | 90 | 1027.2 |
| 20260508204522 | 49 | 196 | 7.0 | 10.4 | 0.00 | 0.01 | 0.00 | 90 | 1027.1 |
| 20260508204005 | 49 | 180 | 6.1 | 11.3 | 0.00 | 0.01 | 0.00 | 90 | 1026.9 |
| 20260508203510 | 49 | 189 | 7.0 | 11.3 | 0.00 | 0.01 | 0.00 | 90 | 1026.9 |
| 20260508203018 | 49 | 204 | 7.0 | 11.3 | 0.00 | 0.01 | 0.00 | 90 | 1027.1 |
| 20260508202505 | 49 | 210 | 6.1 | 11.3 | 0.00 | 0.01 | 0.00 | 90 | 1027.1 |
| 20260508202008 | 49 | 197 | 7.0 | 10.4 | 0.00 | 0.01 | 0.00 | 90 | 1027.0 |
| 20260508201519 | 49 | 217 | 6.1 | 9.6 | 0.00 | 0.01 | 0.00 | 90 | 1026.9 |
| 20260508201013 | 49 | 199 | 7.0 | 10.4 | 0.00 | 0.01 | 0.00 | 90 | 1026.9 |
| 20260508200504 | 49 | 205 | 4.3 | 10.4 | 0.00 | 0.01 | 0.00 | 90 | 1027.0 |
| 20260508200012 | 49 | 202 | 4.3 | 8.7 | 0.00 | 0.01 | 0.00 | 90 | 1026.9 |
| 20260508195507 | 49 | 193 | 3.5 | 11.3 | 0.00 | 0.01 | 0.00 | 90 | 1026.9 |
| 20260508195007 | 49 | 193 | 7.8 | 11.3 | 0.00 | 0.01 | 0.00 | 90 | 1026.9 |
| 20260508194517 | 49 | 214 | 5.2 | 11.3 | 0.00 | 0.01 | 0.00 | 90 | 1026.8 |
| 20260508194009 | 49 | 222 | 7.0 | 11.3 | 0.00 | 0.01 | 0.00 | 90 | 1026.7 |
| 20260508193507 | 49 | 193 | 5.2 | 9.6 | 0.00 | 0.01 | 0.00 | 90 | 1026.7 |
| 20260508193019 | 49 | 199 | 5.2 | 9.6 | 0.00 | 0.01 | 0.00 | 90 | 1026.6 |
| 20260508192010 | 49 | 185 | 5.2 | 8.7 | 0.00 | 0.01 | 0.00 | 90 | 1026.4 |
| 20260508191530 | 49 | 185 | 6.1 | 10.4 | 0.00 | 0.01 | 0.00 | 89 | 1026.4 |
| 20260508191007 | 49 | 180 | 7.0 | 10.4 | 0.00 | 0.01 | 0.00 | 89 | 1026.4 |
| 20260508190508 | 49 | 189 | 6.1 | 12.2 | 0.00 | 0.01 | 0.00 | 89 | 1026.3 |
| 20260508190033 | 49 | 197 | 6.1 | 12.2 | 0.00 | 0.01 | 0.00 | 89 | 1026.4 |
| 20260508185511 | 49 | 191 | 6.1 | 10.4 | 0.00 | 0.01 | 0.00 | 89 | 1026.3 |
| 20260508185010 | 49 | 189 | 6.1 | 10.4 | 0.00 | 0.02 | 0.00 | 89 | 1026.4 |
| 20260508184518 | 49 | 180 | 6.1 | 9.6 | 0.00 | 0.02 | 0.00 | 89 | 1026.4 |
| 20260508184004 | 49 | 185 | 6.1 | 9.6 | 0.00 | 0.02 | 0.00 | 89 | 1026.3 |
| 20260508183507 | 49 | 185 | 7.0 | 9.6 | 0.00 | 0.02 | 0.00 | 89 | 1026.3 |
| 20260508183022 | 49 | 193 | 4.3 | 9.6 | 0.00 | 0.01 | 0.00 | 89 | 1026.2 |
| 20260508182509 | 49 | 185 | 5.2 | 9.6 | 0.00 | 0.01 | 0.00 | 89 | 1026.3 |
| 20260508182008 | 49 | 201 | 4.3 | 7.8 | 0.00 | 0.01 | 0.00 | 89 | 1026.2 |
| 20260508181540 | 49 | 190 | 4.3 | 8.7 | 0.00 | 0.01 | 0.00 | 89 | 1026.2 |
| 20260508181011 | 49 | 189 | 6.1 | 9.6 | 0.00 | 0.01 | 0.00 | 89 | 1026.1 |
| 20260508180508 | 49 | 224 | 6.1 | 9.6 | 0.00 | 0.01 | 0.00 | 89 | 1026.2 |
| 20260508180026 | 49 | 214 | 6.1 | 9.6 | 0.00 | 0.01 | 0.00 | 89 | 1026.2 |
| 20260508175510 | 49 | 218 | 6.1 | 9.6 | 0.00 | 0.01 | 0.00 | 88 | 1026.2 |
| 20260508175009 | 49 | 217 | 5.2 | 8.7 | 0.00 | 0.01 | 0.00 | 88 | 1026.2 |
| 20260508174530 | 49 | 220 | 4.3 | 8.7 | 0.00 | 0.01 | 0.00 | 88 | 1026.2 |
| 20260508174009 | 49 | 212 | 2.6 | 6.1 | 0.00 | 0.01 | 0.00 | 88 | 1026.1 |
| 20260508173509 | 49 | 210 | 3.5 | 6.1 | 0.00 | 0.01 | 0.00 | 88 | 1026.1 |
| 20260508173003 | 49 | 195 | 3.5 | 7.0 | 0.00 | 0.01 | 0.00 | 88 | 1026.1 |
| 20260508172505 | 49 | 207 | 3.5 | 7.0 | 0.00 | 0.01 | 0.00 | 88 | 1026.2 |
| 20260508172003 | 49 | 189 | 2.6 | 4.3 | 0.00 | 0.01 | 0.00 | 88 | 1026.2 |
| 20260508171505 | 49 | 219 | 1.7 | 4.3 | 0.00 | 0.01 | 0.00 | 88 | 1026.2 |
| 20260508171003 | 49 | 196 | 2.6 | 4.3 | 0.00 | 0.01 | 0.00 | 88 | 1026.3 |
| 20260508170004 | 49 | 196 | 1.7 | 6.1 | 0.00 | 0.01 | 0.00 | 88 | 1026.2 |
| 20260508165502 | 49 | 194 | 3.5 | 6.1 | 0.00 | 0.01 | 0.00 | 88 | 1026.1 |
| 20260508164505 | 49 | 210 | 3.5 | 5.2 | 0.00 | 0.01 | 0.00 | 88 | 1026.1 |
| 20260508164006 | 49 | 205 | 2.6 | 5.2 | 0.00 | 0.01 | 0.00 | 87 | 1026.1 |
| 20260508163504 | 49 | 221 | 1.7 | 4.3 | 0.00 | 0.01 | 0.00 | 87 | 1026.1 |
| 20260508162505 | 50 | 194 | 1.7 | 4.3 | 0.00 | 0.01 | 0.00 | 87 | 1026.2 |
| 20260508162006 | 49 | 202 | 2.6 | 4.3 | 0.00 | 0.01 | 0.00 | 87 | 1026.2 |
| 20260508161506 | 49 | 193 | 2.6 | 4.3 | 0.00 | 0.01 | 0.00 | 87 | 1026.2 |
| 20260508161003 | 49 | 185 | 0.9 | 3.5 | 0.00 | 0.01 | 0.00 | 87 | 1026.2 |
| 20260508160503 | 49 | 210 | 0.9 | 3.5 | 0.00 | 0.01 | 0.00 | 87 | 1026.2 |
| 20260508160006 | 49 | 207 | 2.6 | 3.5 | 0.00 | 0.01 | 0.00 | 87 | 1026.2 |
| 20260508155503 | 49 | 205 | 1.7 | 3.5 | 0.00 | 0.01 | 0.00 | 87 | 1026.2 |
| 20260508155003 | 49 | 205 | 1.7 | 3.5 | 0.00 | 0.01 | 0.00 | 87 | 1026.2 |
| 20260508153504 | 49 | 185 | 0.9 | 4.3 | 0.00 | 0.01 | 0.00 | 86 | 1026.3 |
| 20260508153012 | 49 | 198 | 1.7 | 4.3 | 0.00 | 0.01 | 0.00 | 86 | 1026.1 |
| 20260508152503 | 49 | 195 | 1.7 | 2.6 | 0.00 | 0.01 | 0.00 | 86 | 1026.1 |
| 20260508152008 | 49 | 214 | 0.9 | 4.3 | 0.00 | 0.01 | 0.00 | 86 | 1026.2 |
| 20260508151508 | 49 | 212 | 2.6 | 4.3 | 0.00 | 0.01 | 0.00 | 86 | 1026.2 |
| 20260508151006 | 49 | 209 | 2.6 | 4.3 | 0.00 | 0.01 | 0.00 | 86 | 1026.2 |
| 20260508150513 | 49 | 218 | 2.6 | 4.3 | 0.00 | 0.01 | 0.00 | 86 | 1026.2 |
| 20260508150005 | 49 | 217 | 2.6 | 6.1 | 0.00 | 0.01 | 0.00 | 86 | 1026.2 |
| 20260508145505 | 49 | 185 | 2.6 | 7.8 | 0.00 | 0.01 | 0.00 | 86 | 1026.2 |
| 20260508145003 | 49 | 158 | 5.2 | 8.7 | 0.00 | 0.01 | 0.00 | 86 | 1026.2 |
| 20260508144503 | 49 | 200 | 6.1 | 9.6 | 0.00 | 0.01 | 0.00 | 86 | 1026.2 |
| 20260508144003 | 49 | 204 | 5.2 | 9.6 | 0.00 | 0.01 | 0.00 | 85 | 1026.2 |
| 20260508143004 | 49 | 193 | 5.2 | 7.8 | 0.00 | 0.01 | 0.00 | 85 | 1026.2 |
| 20260508142004 | 49 | 180 | 4.3 | 8.7 | 0.00 | 0.01 | 0.00 | 85 | 1026.3 |
| 20260508141514 | 49 | 201 | 5.2 | 7.0 | 0.00 | 0.01 | 0.00 | 85 | 1026.2 |
| 20260508141005 | 49 | 175 | 2.6 | 5.2 | 0.00 | 0.01 | 0.00 | 85 | 1026.2 |
| 20260508140017 | 49 | 185 | 2.6 | 5.2 | 0.00 | 0.01 | 0.00 | 85 | 1026.2 |
| 20260508135003 | 49 | 189 | 2.6 | 6.1 | 0.00 | 0.01 | 0.01 | 84 | 1026.2 |
| 20260508134003 | 49 | 189 | 1.7 | 4.3 | 0.00 | 0.01 | 0.01 | 84 | 1026.3 |
| 20260508133506 | 49 | 212 | 2.6 | 4.3 | 0.00 | 0.01 | 0.01 | 84 | 1026.3 |
| 20260508133007 | 49 | 206 | 3.5 | 5.2 | 0.00 | 0.01 | 0.01 | 84 | 1026.4 |
| 20260508132505 | 49 | 226 | 1.7 | 6.1 | 0.00 | 0.01 | 0.01 | 84 | 1026.5 |
| 20260508131512 | 49 | 226 | 2.6 | 4.3 | 0.00 | 0.01 | 0.01 | 84 | 1026.6 |
| 20260508130008 | 50 | 200 | 2.6 | 6.1 | 0.00 | 0.01 | 0.01 | 83 | 1026.6 |
| 20260508125507 | 50 | 207 | 4.3 | 7.0 | 0.00 | 0.01 | 0.01 | 83 | 1026.6 |
| 20260508125009 | 50 | 216 | 1.7 | 7.8 | 0.00 | 0.01 | 0.01 | 83 | 1026.6 |
| 20260508124505 | 50 | 203 | 3.5 | 7.8 | 0.00 | 0.01 | 0.01 | 83 | 1026.6 |
| 20260508124008 | 50 | 237 | 2.6 | 8.7 | 0.00 | 0.01 | 0.01 | 83 | 1026.6 |
| 20260508123022 | 51 | 206 | 4.3 | 12.2 | 0.00 | 0.01 | 0.01 | 83 | 1026.4 |
| 20260508122503 | 51 | 200 | 7.0 | 12.2 | 0.00 | 0.01 | 0.01 | 83 | 1026.4 |
| 20260508122006 | 51 | 211 | 5.2 | 12.2 | 0.00 | 0.01 | 0.01 | 83 | 1026.3 |
| 20260508121509 | 51 | 202 | 7.0 | 12.2 | 0.00 | 0.01 | 0.01 | 83 | 1026.4 |
| 20260508121003 | 51 | 220 | 6.1 | 12.2 | 0.00 | 0.01 | 0.01 | 83 | 1026.4 |
| 20260508120504 | 51 | 213 | 7.0 | 9.6 | 0.00 | 0.01 | 0.01 | 83 | 1026.4 |
| 20260508120021 | 51 | 203 | 4.3 | 8.7 | 0.00 | 0.01 | 0.01 | 83 | 1026.5 |
| 20260508115505 | 51 | 208 | 5.2 | 7.8 | 0.00 | 0.01 | 0.01 | 84 | 1026.5 |
| 20260508113508 | 51 | 208 | 5.2 | 8.7 | 0.00 | 0.01 | 0.01 | 83 | 1026.1 |
| 20260508113016 | 51 | 192 | 4.3 | 8.7 | 0.00 | 0.01 | 0.01 | 83 | 1026.0 |
| 20260508112508 | 51 | 191 | 4.3 | 8.7 | 0.00 | 0.01 | 0.01 | 83 | 1026.0 |
| 20260508112009 | 51 | 168 | 5.2 | 8.7 | 0.00 | 0.01 | 0.01 | 83 | 1026.0 |
| 20260508111514 | 52 | 158 | 5.2 | 8.7 | 0.00 | 0.01 | 0.01 | 83 | 1026.0 |
| 20260508111012 | 52 | 175 | 5.2 | 9.6 | 0.00 | 0.01 | 0.01 | 83 | 1026.0 |
| 20260508110503 | 52 | 138 | 7.0 | 9.6 | 0.00 | 0.01 | 0.01 | 83 | 1026.0 |
| 20260508110007 | 52 | 194 | 5.2 | 8.7 | 0.00 | 0.01 | 0.01 | 83 | 1026.0 |
| 20260508105505 | 52 | 201 | 4.3 | 7.8 | 0.00 | 0.01 | 0.01 | 83 | 1026.0 |
| 20260508105008 | 52 | 175 | 5.2 | 7.8 | 0.00 | 0.01 | 0.01 | 83 | 1026.0 |
| 20260508104512 | 52 | 165 | 3.5 | 7.0 | 0.00 | 0.01 | 0.01 | 83 | 1026.0 |
| 20260508104009 | 52 | 195 | 3.5 | 8.7 | 0.00 | 0.01 | 0.01 | 83 | 1025.9 |
| 20260508103505 | 52 | 194 | 4.3 | 9.6 | 0.00 | 0.01 | 0.01 | 83 | 1026.0 |
| 20260508103029 | 52 | 195 | 7.0 | 9.6 | 0.00 | 0.01 | 0.01 | 83 | 1026.0 |
| 20260508102508 | 52 | 175 | 5.2 | 10.4 | 0.00 | 0.01 | 0.01 | 83 | 1025.8 |
| 20260508102004 | 52 | 180 | 7.0 | 10.4 | 0.00 | 0.01 | 0.01 | 84 | 1025.7 |
| 20260508101008 | 52 | 180 | 7.0 | 13.0 | 0.00 | 0.01 | 0.01 | 84 | 1025.6 |
| 20260508100510 | 52 | 180 | 5.2 | 13.0 | 0.00 | 0.01 | 0.01 | 83 | 1025.6 |
| 20260508095507 | 52 | 194 | 5.2 | 10.4 | 0.00 | 0.01 | 0.01 | 83 | 1025.6 |